Regional Weather Roundup
Issued by NWS

Home | Current Version | Previous Version | Text Only | Print | Product List | Glossary Off
Versions: 1 2 3 4 5 6 7 8 9 10 11 12 13 14 15 16 17 18 19 20 21 22 23 24 25 26 27 28 29 30 31 32 33 34 35 36 37 38 39 40 41 42 43 44 45 46 47 48 49 50

000
ASUS43 KIND 252309
RWRIN

WEATHER ROUNDUP FOR INDIANA
NATIONAL WEATHER SERVICE INDIANAPOLIS IN
700 PM EDT SAT MAR 25 2017

NOTE: "FAIR" INDICATES FEW OR NO CLOUDS BELOW 12,000 FEET WITH NO
SIGNIFICANT WEATHER AND/OR OBSTRUCTIONS TO VISIBILITY.

* - STATION DOES NOT REPORT WEATHER SUCH AS PRECIPITATION OR FOG.

+ - STATION NOT QUALITY CONTROLLED BY THE NATIONAL WEATHER SERVICE.
    USE DATA WITH CAUTION...ESPECIALLY DEWPOINT AND RELATIVE
    HUMIDITY OBSERVATIONS.

INZ001>003-010>013-019-020-260000-
NORTHWEST INDIANA

CITY           SKY/WX    TMP DP  RH WIND       PRES   REMARKS
GARY /AIRPORT/ LGT RAIN  48  46  93 NW5       29.97F
KNOX *+        CLOUDY    59  43  55 NE6       29.97R
LA PORTE +     RAIN      56  53  89 E10G17    29.99S
MICHIGAN CITY+ CLOUDY    55  54  94 E5        29.99S
MONTICELLO +   CLOUDY    65  56  73 CALM      29.94S
RENSSELAER +   DRIZZLE   59  59 100 E5        29.94F
VALPARAISO     LGT RAIN  59  55  87 E8        29.97S FOG

$$

LMZ046-743>745-260000-
SOUTHERN LAKE MICHIGAN

STATION/POSITION TIME  TEMP    WIND        PRES    WAVE
                       AIR SEA DIR/SP/G            HT
                 (UTC) (F)     (DEG/KT/KT) (MB)    (FT)
BURNS HARBOR     2240   44     270/  7/ 12 1015.2S
MICHIGAN CITY    2240   58      90/ 11/ 14   N/A

$$

INZ004-005-014>016-021>024-260000-
NORTH CENTRAL INDIANA

CITY           SKY/WX    TMP DP  RH WIND       PRES   REMARKS
GOSHEN         CLOUDY    53  44  71 E17       30.01S
LOGANSPORT +   CLOUDY    61  59  94 CALM      29.96S
PERU/GRISSOM   PTSUNNY   62  61  97 SW5       29.94S
SOUTH BEND     LGT RAIN  54  51  90 E9        30.02R FOG
WARSAW +       CLOUDY    54  46  76 E14G23    30.00R

$$

INZ006>009-017-018-025>027-260000-
NORTHEAST INDIANA

CITY           SKY/WX    TMP DP  RH WIND       PRES   REMARKS
ANGOLA *+      PTSUNNY   46  45  93 E13       30.07S
AUBURN +       CLOUDY    48  41  76 E16G26    30.06F
FORT WAYNE     CLOUDY    52  43  71 E22       30.02F
HUNTINGTON +   CLOUDY    54  49  83 E13G20    30.00F
KENDALLVILLE + CLOUDY    47  42  82 E16G23    30.04F

$$

INZ028-029-035-036-043>045-051>053-260000-
WEST CENTRAL INDIANA

CITY           SKY/WX    TMP DP  RH WIND       PRES   REMARKS
CRAWFORDSVL +  CLOUDY    65  54  66 CALM      29.93S
GREENCASTLE +  CLOUDY    68  50  52 S15       29.95R
LAFAYETTE      CLOUDY    65  55  70 CALM      29.93S
TERRE HAUTE    CLOUDY    64  56  75 S6        29.92S

$$

INZ030>032-037>040-046>048-054>057-064-065-260000-
CENTRAL INDIANA

CITY           SKY/WX    TMP DP  RH WIND       PRES   REMARKS
CP ATTERBURY + CLOUDY    72  50  46 W14G23    29.96R
COLUMBUS       SUNNY     72  50  46 S21G30    29.95S
FISHERS *+     CLOUDY    70  55  60 S14G20    29.93F
FRANKFORT +    CLOUDY    66  61  82 E3        29.96S
GREENWOOD *+   CLOUDY    73  51  45 S16G24    29.95R
INDIANAPOLIS   LGT RAIN  62  57  83 SW8       29.94R
-EAGLE CREEK   LGT RAIN  64  56  75 W7        29.95R
KOKOMO +       CLOUDY    68  55  63 W10       29.96S
MARION +       CLOUDY    71  51  49 SE7       29.96F HAZE
MT COMFORT *+  CLOUDY    72  50  46 S15G21    29.95R
SHELBYVILLE    PTSUNNY   75  49  39 S16       29.94S
ZIONSVILLE +   LGT RAIN  66  55  66 W5        29.94F

$$

INZ033-034-041-042-049-050-058-059-260000-
EAST CENTRAL INDIANA

CITY           SKY/WX    TMP DP  RH WIND       PRES   REMARKS
MUNCIE         CLOUDY    74  50  42 SE7       29.96F
RICHMOND +     CLOUDY    66  52  59 SE10      30.01S

$$

INZ060-061-067>069-081>083-085>088-260000-
SOUTHWEST INDIANA

CITY           SKY/WX    TMP DP  RH WIND       PRES   REMARKS
EVANSVILLE     CLOUDY    68  51  54 S14G20    29.91F
HUNTINGBURG *+ CLOUDY    68  55  63 S9        29.93F
WASHINGTON +   CLOUDY    68  49  51 CALM      29.91F

$$

INZ062-063-066-070>080-084-089>092-260000-
SOUTH CENTRAL AND SOUTHEAST INDIANA

CITY           SKY/WX    TMP DP  RH WIND       PRES   REMARKS
BEDFORD +      LGT RAIN  61  57  88 CALM      29.94F
BLOOMINGTON    PTSUNNY   62  56  80 SE7       29.95F
MADISON *+     CLOUDY    73  45  35 S12       29.99F
NORTH VERNON + CLOUDY    75  45  33 S17G26    29.97F
SEYMOUR +      CLOUDY    73  50  43 S18       29.95S

$$





USA.gov is the U.S. government's official web portal to all federal, state and local government web resources and services.